sat.trackr.live / text

‹ back to catalog

STARLINK-2336

NORAD 47879 · 2021-021V

PAYLOAD ACTIVE UNKNOWN

§ Identity

Operator
Country
US
Launch date
2021-03-14
Launch site
AFETR
Launch vehicle
Mass (kg)
RCS (m²)

Purposes: comms

External: N2YO · Heavens-Above · Gunter

§ Orbital elements

Epoch: 2026-09-15T23:10:25.752576Z

Period
88.32 min
Inclination
53.1358°
Eccentricity
0.0010809
Mean motion
16.30367654 rev/d
Perigee alt
184.5 km
Apogee alt
198.7 km
Semi-major
6,569.7 km
B*
9.0731e-4
RAAN
67.8272°
Arg perigee
297.2794°
Mean anomaly
62.7149°
Rev number
30,605

§ Raw data

STARLINK-23361 47879U 21021V   26258.96557584  .04476006  12109-4  90731-3 0  99902 47879  53.1358  67.8272 0010809 297.2794  62.7149 16.30367654306056

JSON: /api/v1/satellites/47879 · /tle

For live sub-satellite position, see the globe view (requires WebGL).

§ Visibility from observer

Set your observer location to see the next 7 days of passes ≥ 10°. The values pass through the URL so the page stays shareable.

No JS? Fill the form by hand. The geolocation button needs JavaScript.